Location: Unspecified
(0.0000°N, 0.0000°E)
Time: 11:50:38
(UTC+00:00)

Explorer 11/Cluster Stage 4 - Pass Details

Date: 23 November 2019
Orbit: 467 x 1259 km, 28.8° (Epoch: 07 December)

Event Time Altitude Azimuth Distance (km) Brightness Sun altitude
Exits shadow 02:47:00 42° 152° (SSE) 1,712 8.4 -41.4°
Drops below altitude 10° 02:52:05 10° 132° (SE) 3,118 10.3 -40.3°
Sets 02:54:52 0° 128° (SE) 4,008 11.1 -39.6°
